Location: Maiden
(35.5760°N, 81.2120°W)
Time: 02:11:00
(UTC-04:00)

Cosmos 2228 Rocket - Pass Details

Date: 02 August 2020
Orbit: 617 x 653 km, 82.5° (Epoch: 11 August)

Event Time Altitude Azimuth Distance (km) Brightness Sun altitude
Rises 22:46:02 0° 345° (NNW) 2,920 7.5 -24.2°
Reaches altitude 10° 22:48:21 10° 339° (NNW) 2,004 6.6 -24.5°
Maximum altitude 22:52:33 44° 268° (W) 863 4.0 -25.1°
Enters shadow 22:53:24 39° 236° (WSW) 934 3.9 -25.2°
